EW4392 Weather Reports


time (UTC)temp
F
wind
direction
speed
knots
gust
knots
rain 1hr
in
rain 24hr
in
rain mn
in
humidity
%
barometer
mb
20260504044543 48 315 0.0 1.7 0.00 0.00 0.00 58 1015.9
20260504043048 47 348 0.0 1.7 0.00 0.00 0.00 61 1015.8
20260504041543 48 355 0.0 0.9 0.00 0.00 0.00 60 1015.8
20260504040040 49 118 0.0 0.9 0.00 0.00 0.00 57 1015.9
20260504034544 49 346 0.0 0.9 0.00 0.00 0.00 55 1015.8
20260504033034 48 336 0.0 0.9 0.00 0.00 0.00 54 1015.9
20260504031534 48 45 0.0 0.9 0.00 0.00 0.00 56 1015.8
20260504030035 49 45 0.0 0.9 0.00 0.00 0.00 55 1015.9
20260504024532 49 320 0.0 1.7 0.00 0.00 0.00 53 1015.8
20260504023032 49 348 0.0 0.0 0.00 0.00 0.00 52 1016.0
20260504021530 50 357 0.0 0.9 0.00 0.00 0.00 53 1015.5
20260504020036 52 116 0.0 0.9 0.00 0.00 0.00 47 1015.6
20260504014532 52 330 0.0 0.9 0.00 0.00 0.00 46 1015.5
20260504013035 52 330 0.0 0.9 0.00 0.00 0.00 48 1015.2
20260504011529 54 323 0.0 0.0 0.00 0.00 0.00 42 1015.0
20260504010029 56 327 0.0 0.9 0.00 0.00 0.00 35 1014.8
20260504004529 55 318 0.0 0.9 0.00 0.00 0.00 39 1014.7
20260504003028 55 326 0.0 0.9 0.00 0.00 0.00 43 1014.6
20260504001534 56 334 0.0 0.9 0.00 0.00 0.00 39 1014.7
20260504000027 58 321 0.0 1.7 0.00 0.00 0.00 35 1014.7
20260503234529 59 298 0.0 1.7 0.00 0.00 0.00 31 1014.6
20260503233026 60 306 0.0 2.6 0.00 0.00 0.00 32 1014.6
20260503231528 61 223 0.0 7.0 0.00 0.00 0.00 31 1014.6
20260503230036 61 291 0.0 3.5 0.00 0.00 0.00 31 1014.4
20260503224524 62 177 0.0 4.3 0.00 0.00 0.00 32 1014.5
20260503223024 62 288 0.9 4.3 0.00 0.00 0.00 34 1014.5
20260503221524 63 320 0.0 3.5 0.00 0.00 0.00 28 1014.6
20260503220022 63 228 1.7 5.2 0.00 0.00 0.00 30 1014.8
20260503214535 63 91 0.0 7.0 0.00 0.00 0.00 31 1014.8
20260503213021 63 120 0.9 4.3 0.00 0.00 0.00 29 1014.8
20260503211519 63 242 1.7 8.7 0.00 0.00 0.00 30 1014.9
20260503210019 64 264 0.9 5.2 0.00 0.00 0.00 27 1015.1
20260503204518 63 201 0.9 7.8 0.00 0.00 0.00 29 1015.0
20260503203017 63 318 0.9 4.3 0.00 0.00 0.00 31 1015.2
20260503201516 62 233 0.9 8.7 0.00 0.00 0.00 33 1015.4
20260503200015 63 148 1.7 6.1 0.00 0.00 0.00 27 1015.7
20260503194513 61 32 3.5 7.8 0.00 0.00 0.00 29 1016.0
20260503193021 62 84 0.0 7.8 0.00 0.00 0.00 29 1016.1
20260503191522 61 87 0.9 12.2 0.00 0.00 0.00 32 1016.3
20260503190016 61 136 0.9 7.0 0.00 0.00 0.00 33 1016.6
20260503184506 60 154 0.9 11.3 0.00 0.00 0.00 35 1017.0
20260503183005 60 190 1.7 7.8 0.00 0.00 0.00 37 1017.2
20260503181501 59 217 1.7 7.0 0.00 0.00 0.00 36 1017.4
20260503180005 59 116 2.6 11.3 0.00 0.00 0.00 37 1017.5
20260503174604 58 278 0.0 8.7 0.00 0.00 0.00 38 1017.7
20260503173105 57 298 0.9 5.2 0.00 0.00 0.00 38 1017.8
20260503171557 58 114 0.9 10.4 0.00 0.00 0.00 40 1018.2
20260503170113 58 79 3.5 8.7 0.00 0.00 0.00 36 1018.3
20260503160104 55 116 1.7 7.8 0.00 0.00 0.00 41 1019.0
20260503081552 44 320 0.0 6.1 0.00 0.00 0.00 60 1015.8
20260503071547 43 339 0.0 2.6 0.00 0.00 0.00 61 1015.4